www.pogodaiklimat.ru
ПОГОДА в Лаппеенранта аэропорту
Время
(UTC), дата
19 6.11
20 6.11
21 6.11
22 6.11
23 6.11
00 7.11
01 7.11
02 7.11
03 7.11
04 7.11
05 7.11
06 7.11
07 7.11
08 7.11
09 7.11
10 7.11
11 7.11
12 7.11
13 7.11
14 7.11
15 7.11
16 7.11
17 7.11
18 7.11
19 7.11
20 7.11
21 7.11
22 7.11
23 7.11
00 8.11
01 8.11
02 8.11
03 8.11
04 8.11
05 8.11
06 8.11
07 8.11
08 8.11
09 8.11
10 8.11
11 8.11
12 8.11
13 8.11
14 8.11
15 8.11
16 8.11
17 8.11
18 8.11
19 8.11
20 8.11
21 8.11
22 8.11
23 8.11
00 9.11
01 9.11
02 9.11
03 9.11
04 9.11
05 9.11
06 9.11
07 9.11
08 9.11
09 9.11
10 9.11
11 9.11
12 9.11
13 9.11
14 9.11
15 9.11
16 9.11
17 9.11
18 9.11
19 9.11
20 9.11
21 9.11
22 9.11
23 9.11
00 10.11
01 10.11
02 10.11
03 10.11
04 10.11
05 10.11
06 10.11
07 10.11
08 10.11
09 10.11
10 10.11
11 10.11
12 10.11
13 10.11
14 10.11
15 10.11
16 10.11
17 10.11
18 10.11
19 10.11
20 10.11
21 10.11
22 10.11
23 10.11
00 11.11
01 11.11
02 11.11
03 11.11
04 11.11
05 11.11
06 11.11
07 11.11
08 11.11
09 11.11
10 11.11
11 11.11
12 11.11
13 11.11
14 11.11
15 11.11
16 11.11
17 11.11
18 11.11
19 11.11
20 11.11
21 11.11
22 11.11
23 11.11
00 12.11
01 12.11
02 12.11
03 12.11
04 12.11
05 12.11
06 12.11
07 12.11
08 12.11
09 12.11
10 12.11
11 12.11
12 12.11
13 12.11
14 12.11
15 12.11
16 12.11
17 12.11
18 12.11
19 12.11
20 12.11
21 12.11
22 12.11
23 12.11
00 13.11
01 13.11
02 13.11
03 13.11
04 13.11
05 13.11
06 13.11
07 13.11
08 13.11
09 13.11
10 13.11
11 13.11
12 13.11
13 13.11
14 13.11
15 13.11
17 13.11
18 13.11
Ветер
(напр.,м/с)
Видим. Явления Облачность Т
(С)
Тd
(С)
f
(%)
Тe
(С)
Тes
(С)
Комфортность P
(гПа)
Po
(гПа)
Тmin
(С)
Tmax
(С)
R
(мм)
R24
(мм)
S
(см)
СВ 5 15 км 1/0 200 м
[]
-6.0 -7.8 87 -13 -13 очень
холодно
1007.6 994.0
СВ 4 6000 м 10/0 100 м
[]
-6.0 -6.8 94 -13 -13 очень
холодно
1007.7 994.1
СВ 5 20 км 10/0 100 м
[]
-6.0 -6.8 94 -13 -13 очень
холодно
1007.9 994.3
СВ 5 15 км 10/0 100 м
[]
-5.7 -6.5 94 -13 -13 очень
холодно
1007.8 994.2
СВ 4 10 км 10/0 100 м
[]
-5.6 -6.6 93 -12 -12 очень
холодно
1007.9 994.4
СВ 5 8000 м 10/0 100 м
[]
-5.5 -6.5 93 -13 -13 очень
холодно
1008.5 994.9
СВ 5 10 км 10/0 100 м
[]
-5.4 -6.4 93 -13 -13 очень
холодно
1008.9 995.3
СВ 5 10 км 10/0 100 м
[]
-4.9 -6.1 91 -12 -12 очень
холодно
1009.1 995.6
СВ 5 50 км 10/0 200 м
[]
-4.7 -6.2 89 -12 -12 очень
холодно
1009.4 995.9
СВ 4 15 км 9/0 300 м
[]
-4.7 -6.4 88 -11 -11 очень
холодно
1009.4 995.9
СВ 4 15 км 1/0
[]
-4.9 -6.4 89 -11 -11 очень
холодно
1009.7 996.2
СВ 4 30 км ясно -4.8 -6.3 89 -11 -11 очень
холодно
1010.2 996.7 -6.3 -4.6
СВ 5 10 км ясно -4.0 -5.8 87 -11 -11 очень
холодно
1010.5 997.0
СВ 5 45 км 9/0 300 м
[]
-3.3 -5.6 84 -10 -10 очень
холодно
1011.3 997.8
СВ 4 45 км 9/0 300 м
[]
-2.7 -5.5 81 -9 -8 очень
холодно
1011.9 998.4
В 4 40 км ясно -2.3 -5.8 77 -8 -8 очень
холодно
1011.9 998.5
В 4 50 км 4/0 300 м
[]
-2.3 -5.6 78 -8 -8 очень
холодно
1012.4 999.0
СВ 5 40 км 9/9 300 м
[]
-1.7 -5.4 76 -8 -8 очень
холодно
1012.6 999.2
СВ 4 50 км 5/3 300 м
[]
-2.0 -5.3 78 -8 -8 очень
холодно
1012.7 999.3
СВ 4 40 км ясно -2.8 -5.4 82 -9 -9 очень
холодно
1012.9 999.4
СВ 4 30 км ясно -3.5 -5.5 86 -10 -10 очень
холодно
1013.4 999.9
СВ 4 30 км ясно -3.5 -5.2 88 -10 -10 очень
холодно
1013.6 1000.1
СВ 4 25 км ясно -4.0 -5.4 90 -10 -10 очень
холодно
1013.9 1000.4
СВ 4 30 км ясно -4.2 -5.6 90 -11 -11 очень
холодно
1014.1 1000.5 -4.8 -1.7
СВ 4 35 км 1/0
[]
-4.5 -5.9 90 -11 -11 очень
холодно
1014.2 1000.6
СВ 4 50 км ясно -4.6 -6.0 90 -11 -11 очень
холодно
1014.2 1000.6
СВ 3 50 км ясно -4.7 -6.1 90 -10 -10 очень
холодно
1014.5 1000.9
В 2 40 км 6/0
[]
-5.0 -6.1 92 -9 -9 очень
холодно
1014.8 1001.2
СВ 3 40 км 9/8 300 м
[]
-4.4 -5.6 91 -10 -10 очень
холодно
1014.8 1001.2
В 3 50 км 10/0 300 м
[]
-3.8 -5.3 89 -9 -9 очень
холодно
1014.7 1001.2
В 2 50 км 10/0 300 м
[]
-3.7 -5.1 90 -8 -8 очень
холодно
1014.9 1001.4
В 1 50 км 10/0 200 м
[]
-3.6 -4.9 91 -6 -6 холодно 1015.1 1001.6
В 2 50 км 10/0 100 м
[]
-3.8 -4.8 93 -8 -8 очень
холодно
1015.5 1001.9
В 3 35 км 10/0 100 м
[]
-4.8 -5.5 95 -10 -10 очень
холодно
1015.7 1002.1
В 3 15 км 10/0 100 м
[]
-5.4 -5.9 96 -11 -11 очень
холодно
1016.0 1002.4
В 2 10 км слаб. ливневой снег 10/0 100 м
[]
-5.4 -6.1 95 -10 -10 очень
холодно
1016.5 1002.8 -5.5 -3.6
В 2 5000 м слаб. ливневой снег 10/0 100 м
[]
-5.1 -5.8 95 -10 -10 очень
холодно
1016.6 1003.0
В 1 5000 м слаб. снег 10/0 300 м
[]
-4.3 -5.1 94 -7 -7 холодно 1017.0 1003.4
В 2 20 км 10/10 100 м
[]
-3.6 -4.7 92 -8 -8 очень
холодно
1017.4 1003.8
В 1 25 км 10/0 300 м
[]
-3.1 -4.4 91 -5 -5 холодно 1017.9 1004.3
В 1 3500 м снежные зёрна 10/0 300 м
[]
-2.8 -3.9 92 -5 -5 холодно 1018.2 1004.7
В 1 20 км 10/10 200 м
[]
-2.4 -3.5 92 -5 -5 холодно 1018.4 1004.9
В 2 25 км 10/10 200 м
[]
-2.3 -3.6 91 -6 -6 холодно 1018.7 1005.2
В 2 20 км 10/0 600 м
[]
-2.3 -3.4 92 -6 -6 холодно 1019.2 1005.7
ЮВ 1 10 км слаб. ливневой снег 10/0 300 м
[]
-2.5 -3.2 95 -5 -5 холодно 1019.8 1006.2
В 2 10 км 10/10 300 м
[]
-2.4 -3.1 95 -7 -7 холодно 1019.9 1006.4
ЮВ 2 8000 м 10/0 100 м
[]
-2.4 -2.9 96 -7 -7 холодно 1020.1 1006.5
ЮВ 3 4800 м дымка 10/0 50 м
[]
-2.3 -2.7 97 -8 -8 очень
холодно
1019.9 1006.4 -5.4 -2.1
В 2 4600 м дымка 10/0 50 м
[]
-2.2 -2.6 97 -6 -6 холодно 1020.4 1006.9
В 2 300 м туман ?/? -2.0 -2.1 99 -6 -6 холодно 1020.8 1007.3
В 2 600 м туман ?/? -1.8 -1.9 99 -6 -6 холодно 1020.7 1007.2
В 2 2400 м дымка 10/0 50 м
[]
-1.7 -1.8 99 -6 -6 холодно 1020.6 1007.1
В 3 5000 м 10/0 50 м
[]
-1.5 -1.6 99 -7 -7 холодно 1020.3 1006.8
В 3 5000 м слаб. переохл. дождь (гололёд) 10/0 50 м
[]
-1.2 -1.3 99 -6 -6 холодно 1020.2 1006.7
В 3 2800 м слаб. переохл. дождь (гололёд) 10/0 50 м
[]
-1.0 -1.1 99 -6 -6 холодно 1019.7 1006.2
В 3 900 м слаб. переохл. морось (гололёд) ?/? -0.7 -0.8 99 -6 -6 холодно 1019.8 1006.3
В 3 1800 м дымка ?/? -0.4 -0.5 99 -5 -5 холодно 1019.1 1005.7
В 3 4100 м дымка 10/0 50 м
[]
-0.2 -0.3 99 -5 -5 холодно 1018.6 1005.2
В 3 5000 м 10/10 50 м
[]
+0.1 0.0 99 -5 -5 холодно 1018.1 1004.7
В 3 6000 м 10/10 50 м
[]
+0.4 +0.3 99 -4 -4 прохладно 1017.8 1004.4 -2.3 +0.4
В 3 5000 м 10/0 50 м
[]
+0.7 +0.6 99 -4 -4 прохладно 1017.7 1004.3
ЮВ 2 3200 м дымка 10/0 50 м
[]
+1.0 +0.9 99 -3 -3 прохладно 1017.3 1004.0
В 2 2900 м дымка 10/0 50 м
[]
+1.2 +1.1 99 -2 -2 по сезону 1017.0 1003.7
В 3 5000 м слаб. ливневой дождь 10/0 50 м
[]
+1.7 +1.6 99 -3 -3 прохладно 1016.3 1003.0
В 3 3800 м слаб. ливневой дождь 10/0 50 м
[]
+1.9 +1.8 99 -3 -2 прохладно 1015.7 1002.4
В 3 2600 м дымка 10/0 50 м
[]
+2.0 +1.9 99 -3 -2 прохладно 1015.0 1001.7
В 2 1700 м дымка 10/0 50 м
[]
+2.0 +1.9 99 -2 -2 по сезону 1014.2 1000.9
В 2 400 м туман ?/? +2.0 +2.0 100 -2 -2 по сезону 1013.4 1000.2
В 2 400 м туман ?/? +2.1 +2.1 100 -1 -1 по сезону 1013.4 1000.2
В 2 700 м туман ?/? +2.2 +2.2 100 -1 -1 по сезону 1012.5 999.3
В 2 300 м туман ?/? +2.3 +2.3 100 -1 -1 по сезону 1012.2 999.0
В 2 200 м туман ?/? +2.2 +2.2 100 -1 -1 по сезону 1012.1 998.9 +0.4 +2.3
В 2 100 м туман ?/? +2.4 +2.4 100 -1 -1 по сезону 1011.8 998.6
В 2 200 м туман ?/? +2.3 +2.3 100 -1 -1 по сезону 1011.6 998.4
В 2 300 м туман ?/? +2.3 +2.3 100 -1 -1 по сезону 1011.5 998.3
В 2 700 м туман 10/0 50 м
[]
+2.3 +2.3 100 -1 -1 по сезону 1011.2 998.0
В 2 500 м туман ?/? +2.3 +2.3 100 -1 -1 по сезону 1011.1 997.9
В 2 500 м туман ?/? +2.4 +2.4 100 -1 -1 по сезону 1010.6 997.4
В 2 300 м слаб. ливневой дождь ?/? +2.4 +2.4 100 -1 -1 по сезону 1010.4 997.2
В 2 1900 м дождь 10/0 50 м
[]
+2.4 +2.4 100 -1 -1 по сезону 1010.2 997.0
В 2 700 м слаб. дождь ?/? +2.4 +2.4 100 -1 -1 по сезону 1009.8 996.6
В 2 600 м слаб. ливневой дождь ?/? +2.4 +2.4 100 -1 -1 по сезону 1009.6 996.4
В 2 200 м слаб. дождь ?/? +2.4 +2.4 100 -1 -1 по сезону 1009.2 996.0
В 2 300 м слаб. ливневой дождь ?/? +2.5 +2.5 100 -1 -1 по сезону 1008.9 995.7 +2.2 +2.5
В 2 900 м слаб. дождь ?/? +2.5 +2.5 100 -1 -1 по сезону 1008.7 995.5
В 2 1300 м дождь ?/? +2.6 +2.6 100 -1 -1 по сезону 1008.4 995.2
В 2 3700 м слаб. дождь 10/0 50 м
[]
+2.9 +2.9 100 -1 -0 по сезону 1008.3 995.2
В 3 4200 м слаб. дождь 10/0 50 м
[]
+3.3 +3.3 100 -1 -1 по сезону 1007.5 994.4
В 2 400 м туман ?/? +3.6 +3.6 100 0 0 по сезону 1007.2 994.1
В 2 300 м туман ?/? +4.2 +4.2 100 +1 +1 по сезону 1006.8 993.7
В 2 500 м туман ?/? +4.8 +4.8 100 +2 +2 по сезону 1006.3 993.3
ЮВ 2 200 м туман ?/? +5.5 +5.5 100 +3 +3 по сезону 1006.1 993.1
Ю 2 300 м туман ?/? +6.7 +6.7 100 +4 +4 по сезону 1006.0 993.1
Ю 3 3800 м слаб. ливневой дождь 10/0 50 м
[]
+7.5 +7.5 100 +4 +4 по сезону 1005.9 993.0
Ю 3 6000 м 10/10 100 м
[]
+7.5 +7.5 100 +4 +4 по сезону 1006.0 993.1
Ю 3 6000 м 10/0 100 м
[]
+7.3 +7.3 100 +4 +4 по сезону 1006.1 993.2 +2.4 +7.5
Ю 2 7000 м 10/0 100 м
[]
+7.1 +7.1 100 +5 +5 тепло 1006.2 993.3
Ю 3 10 км 10/0 100 м
[]
+7.0 +6.9 99 +4 +4 по сезону 1006.3 993.4
Ю 2 6000 м слаб. ливневой дождь 10/0 50 м
[]
+6.9 +6.8 99 +4 +4 по сезону 1006.6 993.7
Ю 2 8000 м 10/0 100 м
[]
+6.7 +6.6 99 +4 +4 по сезону 1006.6 993.7
Ю 2 10 км 10/0 50 м
[]
+6.5 +6.4 99 +4 +4 по сезону 1006.6 993.7
Ю 1 8000 м 10/0 50 м
[]
+6.3 +6.2 99 +5 +5 тепло 1006.9 993.9
Ю 2 8000 м 10/0 50 м
[]
+6.2 +6.1 99 +4 +4 по сезону 1006.7 993.7
Ю 1 4600 м дымка ?/? +6.0 +6.0 100 +5 +5 тепло 1006.9 993.9
Ю 1 700 м слаб. дождь ?/? +5.8 +5.8 100 +4 +4 по сезону 1007.0 994.0
Ю 1 100 м туман ?/? +5.6 +5.6 100 +4 +4 по сезону 1007.0 994.0
ЮВ 1 300 м туман ?/? +5.4 +5.4 100 +4 +4 по сезону 1007.2 994.2
Ю 1 200 м туман ?/? +5.1 +5.1 100 +4 +4 по сезону 1007.4 994.4 +5.1 +7.3
СЗ 3 500 м туман ?/? +2.7 +2.7 100 -2 -2 по сезону 1007.8 994.7
СЗ 2 10 км 10/0 50 м
[]
+2.1 +2.1 100 -1 -1 по сезону 1008.4 995.2
СЗ 3 15 км 10/0 50 м
[]
+1.9 +1.9 100 -3 -2 прохладно 1008.4 995.2
З 3 2100 м дымка 10/0 50 м
[]
+1.8 +1.8 100 -3 -2 прохладно 1008.6 995.4
СЗ 2 9000 м 10/0 50 м
[]
+1.6 +1.6 100 -2 -2 по сезону 1008.8 995.6
СЗ 2 3000 м дымка 10/0 50 м
[]
+1.5 +1.5 100 -2 -2 по сезону 1008.8 995.6
СЗ 2 10 км 10/0 50 м
[]
+1.4 +1.4 100 -2 -2 по сезону 1008.9 995.7
СЗ 2 10 км 10/0 50 м
[]
+1.1 +1.1 100 -3 -3 прохладно 1009.0 995.8
СЗ 3 20 км 10/0 50 м
[]
+1.1 +1.1 100 -4 -4 прохладно 1009.1 995.9
З 3 400 м туман ?/? +0.5 +0.5 100 -4 -4 прохладно 1009.4 996.1
СЗ 3 5000 м 10/0 50 м
[]
+0.2 +0.2 100 -5 -5 холодно 1009.7 996.4
СЗ 3 10 км 10/0 50 м
[]
0.0 0.0 100 -5 -5 холодно 1009.9 996.6 0.0 +5.1
З 3 8000 м 10/0 50 м
[]
0.0 -0.1 99 -5 -5 холодно 1010.4 997.1
З 3 2000 м дымка 10/0 50 м
[]
-0.2 -0.2 100 -5 -5 холодно 1010.8 997.5
З 4 1400 м дымка ?/? -0.7 -0.7 100 -7 -7 холодно 1011.1 997.8
З 3 1700 м дымка 10/0 50 м
[]
-0.8 -0.8 100 -6 -6 холодно 1012.1 998.7
З 4 7000 м 10/0 50 м
[]
-1.1 -1.2 99 -7 -7 холодно 1012.6 999.2
З 4 45 км 10/0 100 м
[]
-1.7 -2.1 97 -8 -8 очень
холодно
1013.1 999.7
З 3 6000 м 10/0 100 м
[]
-1.9 -2.3 97 -7 -7 холодно 1014.0 1000.6
З 4 6000 м снежные зёрна 10/0 100 м
[]
-2.2 -2.9 95 -8 -8 очень
холодно
1014.6 1001.1
З 3 35 км 10/0 100 м
[]
-2.0 -2.6 96 -7 -7 холодно 1015.5 1002.0
З 2 5000 м слаб. ливневой снег 10/0 100 м
[]
-2.3 -2.9 96 -6 -6 холодно 1016.3 1002.8
З 4 10 км снежные зёрна 10/0 100 м
[]
-2.6 -3.1 96 -9 -9 очень
холодно
1016.7 1003.2
З 3 5000 м снежные зёрна 10/0 100 м
[]
-2.6 -3.1 96 -8 -8 очень
холодно
1017.3 1003.8 -2.6 +0.1
З 2 7000 м снежные зёрна 10/0 100 м
[]
-2.6 -3.3 95 -7 -7 холодно 1018.2 1004.7
З 3 45 км снежные зёрна 10/0 100 м
[]
-2.7 -3.4 95 -8 -8 очень
холодно
1019.0 1005.4
З 1 15 км слаб. ливневой снег 10/0 100 м
[]
-2.4 -3.1 95 -5 -4 холодно 1019.4 1005.9
ЮЗ 2 45 км 10/0 100 м
[]
-2.2 -2.8 96 -6 -6 холодно 1020.1 1006.6
ЮЗ 1 15 км 10/0 50 м
[]
-2.1 -2.5 97 -5 -4 холодно 1020.6 1007.1
ЮЗ 2 1900 м дымка 10/0 50 м
[]
-2.1 -2.4 98 -6 -6 холодно 1021.0 1007.5
Ю 2 200 м туман ?/? -2.6 -2.7 99 -7 -7 холодно 1021.5 1007.9
ЮВ 1 300 м туман ?/? -2.7 -2.8 99 -5 -5 холодно 1021.5 1007.9
В 2 400 м туман ?/? -2.8 -2.9 99 -7 -7 холодно 1021.2 1007.6
В 2 10 км 10/0 50 м
[]
-2.6 -2.9 98 -7 -7 холодно 1020.7 1007.1
В 3 40 км 10/0 50 м
[]
-2.3 -2.6 98 -8 -8 очень
холодно
1020.5 1006.9
В 3 10 км 10/0 50 м
[]
-1.9 -2.2 98 -7 -7 холодно 1020.1 1006.6 -3.0 -1.9
В 3 3700 м дымка 10/0 50 м
[]
-1.3 -1.4 99 -6 -6 холодно 1019.7 1006.2
В 3 9000 м 10/0 50 м
[]
-0.5 -0.6 99 -6 -6 холодно 1018.7 1005.3
ЮВ 4 20 км 10/10 100 м
[]
+0.5 +0.4 99 -5 -5 холодно 1018.0 1004.6
В 5 15 км 9/0 100 м
[]
+1.0 +0.7 98 -5 -5 холодно 1017.0 1003.7
ЮВ 4 10 км слаб. дождь 10/0 100 м
[]
+1.0 +0.6 97 -4 -4 прохладно 1016.7 1003.4
ЮВ 4 10 км слаб. дождь 10/0 50 м
[]
+1.2 +0.9 98 -4 -4 прохладно 1015.9 1002.6
ЮВ 4 15 км 10/0 50 м
[]
+1.5 +1.2 98 -4 -4 прохладно 1015.7 1002.4
ЮВ 3 10 км 10/0 50 м
[]
+1.6 +1.3 98 -3 -3 прохладно 1015.4 1002.1
ЮВ 3 10 км 10/0 50 м
[]
+1.8 +1.7 99 -3 -3 прохладно 1014.6 1001.3
ЮВ 3 6000 м 10/0 50 м
[]
+2.0 +1.9 99 -3 -3 прохладно 1014.5 1001.2
ЮВ 2 1800 м дымка 10/0 50 м
[]
+2.1 +2.0 99 -1 -1 по сезону 1014.1 1000.8
ЮВ 2 1500 м дымка ?/? +2.2 +2.1 99 -1 -1 по сезону 1013.8 1000.6 -1.9 +2.2
ЮВ 2 900 м туман ?/? +2.4 +2.4 100 -1 -1 по сезону 1013.4 1000.2
В 2 1200 м дымка ?/? +2.5 +2.5 100 -1 -1 по сезону 1013.0 999.8
ЮВ 3 700 м туман ?/? +2.8 +2.8 100 -2 -2 по сезону 1012.8 999.6
ЮВ 3 1600 м дымка 10/0 50 м
[]
+3.1 +3.1 100 -1 -1 по сезону 1012.2 999.0
ЮВ 3 4900 м дымка 10/0 50 м
[]
+3.4 +3.4 100 -1 -1 по сезону 1012.2 999.0
ЮВ 3 10 км слаб. ливневой дождь 10/0 50 м
[]
+3.6 +3.6 100 -1 -0 по сезону 1011.3 998.2
ЮВ 3 10 км 10/0 50 м
[]
+3.7 +3.6 99 -0 -0 по сезону 1011.1 998.0
ЮВ 3 9000 м слаб. ливневой дождь 10/0 50 м
[]
+3.8 +3.7 99 -0 -0 по сезону 1010.4 997.3
ЮВ 3 10 км 10/0 50 м
[]
+4.0 +3.9 99 0 0 по сезону 1010.3 997.2
ЮВ 3 10 км слаб. дождь 10/0 50 м
[]
+4.6 +4.5 99 +1 +1 по сезону 1009.3 996.2
ЮВ 3 9000 м слаб. дождь 10/0 50 м
[]
+4.8 +4.7 99 +1 +1 по сезону 1008.6 995.5 +2.2 +4.8
Местоположение метеостанции Лаппеенранта аэропорт (Финляндия): широта 61.04 долгота 28.15 высота над уровнем моря 106 м.
В архиве по умолчанию представлена погода в Лаппеенранта аэропорту за последнюю неделю. Архивные данные за месяц целиком и за предыдущие месяцы, начиная с января 2011 года, Вы можете получить, выбрав интересующий диапазон дат из раскрывающегося списка и нажав кнопку "Найти!".
*Определитесь, кто Вы:
Внимание! Время в таблицах - всемирное. Для получения местного времени необходимо прибавить поправку, которая равна 1 ч.
Смотрите также архив погоды в соседних городах и на ближайших метеорологических станциях:
Партнеры нашего сайта:      
Пояснения к столбцам:
  • Ветер - указаны скорость ветра в м/с - средняя за 10 мин, порывы в срок и между сроками (в фигурных скобках) и направление, откуда дует ветер: С - северный,
  • СВ - северо-восточный, В - восточный, ЮВ - юго-восточный, Ю - южный, ЮЗ - юго-западный, З - западный, СЗ - северо-западный.
  • Видимость - горизонтальная дальность видимости в метрах или километрах. При видимости от 1 до 10 км при отсутствии осадков обычно наблюдается дымка, при ухудшении видимости до 1 км и менее - туман. В сухую погоду видимость может ухудшаться дымом, пылью или мглою.
  • Явления - указаны атмосферные явления, наблюдавшиеся в срок или в последний час перед сроком; фигурными скобками обозначены явления, наблюдавшиеся между сроками (за 1-3 часа до срока); квадратными скобками обозначены град или гололедные отложения с указанием их диаметра в мм.
  • Облачность - указаны через наклонную черту общая и нижняя облачность в баллах и высота нижней границы облаков в метрах; квадратными скобками обозначены формы облаков: Ci - перистые, Cs - перисто-слоистые, Cc - перисто-кучевые, Ac - высококучевые, As - высокослоистые, Sc - слоисто-кучевые, Ns - слоисто-дождевые, Cu - кучевые, Cb - кучево-дождевые. Подробнее классификацию облаков см. в Атласе облаков (PDF).
  • T - Температура воздуха - температура, измеренная на высоте 2 м над землей.
  • Td - Температура точки росы - температура, при понижении до которой содержащийся в воздухе водяной пар достигнет насыщения.
  • f - Относительная влажность воздуха - влажноcть воздуха, измеренная на высоте 2 м над землей.
  • Te - Эффективная температура - температура, которую ощущает одетый по сезону человек в тени. Характеристика душности погоды. При расчете учитывается влияние влажности воздуха и скорости ветра на теплоощущения человека.
  • Tes - Эффективная температура на солнце - температура, которую ощущает человек, с поправкой на солнечный нагрев. Характеристика знойности погоды. Зависит от высоты солнца над горизонтом, облачности и скорости ветра. Ночью, в пасмурную погоду, а также при ветре 12 м/с и более поправка равна нулю.
  • P - Атмосферное давление - приведенное к уровню моря атмосферное давление.
  • Po - Атмосферное давление - измеренное на уровне метеостанции атмосферное давление.
  • Tmin - Минимальная температура - минимум температуры воздуха на высоте 2 м над землей.
  • Tmax - Максимальная температура - максимум температуры воздуха на высоте 2 м над землей.
  • R - Количество осадков - Количество выпавших осадков за период времени, мм. При наведении курсора мыши на число - период времени, за который выпало указанное количество осадков.
  • R24 - Количество осадков - Количество выпавших осадков за 24 часа, мм.
  • S - Снежный покров - Высота снежного покрова, см. При наведении курсора мыши на число - состояние снежного покрова и степень покрытия местности в баллах.